Wind_Speed
1 1 1 1 1 2 2 1 1 1 2 2 1 1 1 1 1 1 2 3 3 3 4 5 5 5 6 7 7 7 7 6 7 7 6 6 5 6 5 5 5 5 5
2 2 2 1 1 1 2 1 1 1 2 2 2 2 2 2 1 2 2 3 3 4 4 4 5 6 6 7 7 7 7 7 7 8 7 6 6 6 6 6 6 6 5
2 2 2 2 2 2 3 3 2 2 3 3 2 2 2 2 1 2 2 3 4 4 4 5 5 6 6 7 8 8 8 8 8 9 8 7 7 7 7 6 7 7 7
3 3 2 2 3 3 3 3 3 3 4 4 3 2 2 2 1 2 2 3 4 5 5 5 6 6 6 8 8 8 8 8 9 9 9 9 8 8 7 7 6 7 7
4 3 3 2 3 4 4 4 4 4 4 4 3 3 2 2 2 2 2 3 4 4 5 6 6 6 7 8 8 9 9 9 9 10 9 9 9 8 8 8 7 7 6
4 3 3 3 3 3 4 4 4 4 4 4 3 3 3 3 3 3 3 3 4 5 5 6 6 6 6 6 8 9 9 9 9 9 9 10 9 9 9 8 7 7 7
4 4 4 3 4 3 3 4 4 4 4 3 3 3 3 3 4 3 3 4 4 5 5 6 6 6 6 7 8 9 9 9 9 9 10 10 9 10 10 9 8 8 8
5 5 5 4 4 3 3 3 4 4 3 3 3 3 3 3 3 3 4 4 5 5 5 6 6 7 7 7 8 8 9 10 10 10 9 10 10 10 10 10 9 9 9
5 5 5 5 4 4 4 3 3 4 3 3 3 3 3 4 4 4 4 5 5 5 5 6 6 6 7 7 8 9 9 9 10 9 10 9 10 10 10 10 10 9 10
6 5 5 5 4 4 4 3 4 4 4 3 4 4 4 5 5 5 5 5 5 5 5 5 6 6 7 7 8 9 9 10 10 9 10 9 9 10 9 9 10 10 10
5 5 5 5 4 4 4 3 4 4 4 4 4 4 5 5 5 5 5 5 5 5 5 5 6 6 7 7 7 8 9 9 9 9 10 9 9 10 10 10 11 11 11
5 5 5 5 4 4 3 4 4 4 4 4 4 5 5 5 5 5 5 5 5 5 5 5 5 6 6 7 7 8 9 9 9 9 9 9 9 10 10 11 11 11 11
4 5 5 4 4 4 4 4 4 4 4 5 5 5 5 6 6 5 5 5 5 4 4 4 4 5 5 6 7 7 8 9 9 9 9 9 9 10 10 11 11 11 11
5 5 5 4 4 4 4 4 4 4 4 5 6 6 6 6 5 5 5 4 4 3 3 3 3 4 5 5 6 7 8 7 9 9 9 9 9 9 9 10 10 11 11
5 5 6 5 5 4 4 4 4 4 4 5 6 7 7 6 5 5 4 4 3 3 3 3 3 4 4 5 6 7 8 8 8 8 9 9 8 8 8 9 9 9 10
6 5 6 5 5 4 4 4 4 4 4 5 6 6 7 7 6 5 4 4 3 3 3 3 3 3 4 4 5 6 7 8 8 7 8 9 8 8 8 9 9 8 8
6 6 6 5 5 5 4 4 4 4 4 5 6 6 7 7 6 5 4 4 3 3 3 3 3 3 3 2 3 4 5 6 7 7 7 7 7 7 8 7 7 7 8
7 6 6 5 5 5 5 4 4 4 4 5 6 6 6 6 5 5 5 4 4 4 4 3 3 3 2 2 2 2 3 5 5 6 6 6 6 6 7 7 8 8 7
7 6 5 5 5 5 5 4 4 4 4 4 5 6 6 6 5 5 5 4 4 4 4 3 3 2 2 2 1 1 2 3 3 4 5 5 5 5 6 7 7 8 7
7 7 6 6 5 5 5 4 4 4 4 4 5 4 5 5 5 5 5 4 4 3 4 4 3 3 2 2 2 2 2 3 3 3 4 4 5 6 6 6 6 7 7
6 6 5 6 5 5 5 4 4 4 4 4 4 3 4 5 5 5 4 4 4 4 3 3 3 3 3 3 2 2 2 3 3 3 4 5 5 5 5 6 6 6 7
6 6 6 5 6 5 5 4 4 4 4 4 3 3 4 5 5 5 4 4 4 4 3 3 3 3 3 3 3 2 3 3 3 3 4 5 5 5 5 6 6 7 7
6 6 6 6 5 5 4 4 3 3 3 3 3 3 3 4 4 5 5 4 4 4 3 3 3 3 3 3 2 3 3 2 2 2 3 3 4 5 5 6 6 6 7
6 6 6 7 6 5 4 4 4 4 3 2 2 3 3 3 4 4 5 4 4 4 3 3 3 3 3 3 3 3 3 3 3 3 3 4 4 5 6 6 6 6 7
7 7 7 7 7 6 5 4 4 4 3 3 3 3 3 3 3 4 4 4 4 4 3 3 3 3 3 4 4 4 4 4 5 5 5 5 5 6 6 7 6 7 7
7 7 7 7 6 6 5 5 4 5 5 4 4 4 3 2 3 4 4 4 4 4 4 4 3 3 4 4 4 5 5 6 6 6 6 6 7 7 7 7 7 8 9
Wind_Direction
335 339 358 11 32 25 40 50 45 34 28 30 18 8 343 318 286 224 241 240 238 230 219 214 211 214 216 215 211 209 207 203 199 200 200 199 196 197 192 182 181 178 172
312 310 325 335 343 339 354 2 11 24 11 1 346 322 334 321 294 260 247 252 247 239 233 226 221 222 223 221 218 217 216 210 207 205 205 204 200 200 203 196 187 187 189
316 314 325 333 325 323 327 330 340 344 346 340 336 321 316 307 292 272 252 255 253 246 236 233 230 227 225 225 224 223 221 221 217 209 209 210 211 209 207 203 198 195 198
306 302 317 332 328 325 325 332 336 339 343 343 334 320 320 312 294 276 262 260 257 249 243 239 234 232 232 232 230 227 227 226 222 213 213 214 214 212 207 205 210 211 210
306 305 303 320 330 329 329 336 346 346 343 345 340 337 332 321 301 290 281 275 269 264 259 250 241 235 234 233 233 230 230 231 225 217 216 216 213 213 211 213 219 217 217
310 307 307 319 324 328 333 337 340 344 347 351 348 347 346 329 318 307 295 284 278 273 263 257 250 244 233 233 234 231 232 229 224 219 219 219 217 218 219 222 225 226 223
308 306 309 309 316 319 329 333 334 336 338 349 351 348 348 335 329 319 300 291 288 280 268 257 255 252 246 243 239 231 231 227 223 224 223 223 222 223 223 228 232 231 230
300 304 307 306 310 308 318 330 332 333 338 347 347 344 339 330 322 310 300 294 288 281 271 262 260 253 247 244 243 237 233 229 227 225 228 226 225 225 225 232 236 233 231
290 295 305 305 307 305 311 319 328 333 337 340 340 341 334 325 317 312 306 295 286 281 276 265 261 258 248 244 244 243 239 233 231 232 234 231 233 230 231 235 235 233 234
294 293 296 300 305 306 313 314 324 333 340 338 337 339 334 328 322 319 312 303 292 285 279 270 266 264 257 249 246 242 236 237 235 237 233 231 234 234 236 235 233 234 236
298 299 297 304 305 304 306 317 328 334 337 340 343 339 332 328 327 325 318 310 300 291 283 276 271 266 262 254 248 240 237 235 233 236 234 233 236 239 241 239 237 239 237
301 304 309 311 307 311 314 322 330 336 343 343 342 339 336 332 326 325 322 315 307 301 293 283 274 267 260 255 251 244 239 238 236 235 236 239 239 242 242 244 242 241 240
299 305 314 316 310 312 318 323 329 333 346 352 350 342 339 337 333 329 329 321 313 306 298 289 278 270 262 255 252 247 243 242 239 238 238 242 246 244 244 245 246 246 245
296 295 296 307 310 312 314 322 324 335 347 351 353 350 344 343 343 335 330 325 322 315 308 300 288 276 267 259 254 249 243 240 238 239 240 242 248 249 245 245 248 248 247
292 289 286 297 301 304 312 317 319 326 341 347 350 354 352 350 349 344 340 337 333 327 323 322 308 288 280 271 257 251 246 243 236 238 237 239 245 247 248 248 249 250 249
286 289 288 292 295 299 302 307 317 322 332 340 345 350 354 357 353 345 344 342 342 342 338 332 319 302 291 276 267 258 252 248 241 241 243 241 245 248 251 249 245 254 257
283 285 287 289 290 298 299 297 310 317 328 337 347 350 353 356 355 353 348 345 349 350 342 333 325 315 303 286 276 262 258 256 249 246 241 244 248 250 252 250 249 255 262
279 281 281 278 281 293 300 295 307 311 322 338 343 346 353 355 1 7 6 1 0 357 351 342 338 330 320 314 296 276 274 264 259 250 245 250 254 259 257 254 252 257 266
274 278 271 270 278 284 286 291 305 313 316 330 337 340 350 351 357 5 6 360 360 3 4 358 354 347 344 346 334 303 288 278 272 256 253 254 257 265 267 264 258 260 266
271 269 263 264 269 267 271 286 299 310 312 320 329 340 349 349 354 1 4 3 5 9 11 17 17 9 1 353 341 322 315 295 284 270 261 260 265 270 270 269 266 266 270
275 261 263 264 264 267 270 282 295 307 313 318 324 331 343 349 354 358 3 5 9 12 14 16 20 14 3 358 353 336 314 305 285 281 271 268 273 274 270 268 270 275 277
267 264 266 262 260 264 270 274 292 300 306 315 324 333 343 348 353 359 358 360 2 6 9 13 14 9 6 5 1 356 333 317 297 284 270 270 273 274 275 278 281 282 280
269 268 265 259 258 261 267 264 281 293 299 314 325 338 340 347 356 356 359 1 2 3 1 359 357 354 356 355 347 334 338 339 327 307 292 280 278 278 278 279 284 285 282
266 264 264 263 260 258 264 264 273 285 285 307 325 337 342 353 359 360 0 0 0 1 360 357 348 342 338 334 334 332 334 335 331 321 312 302 295 289 284 282 282 284 286
263 261 260 263 258 259 261 260 262 270 275 285 301 319 330 344 352 360 2 5 4 359 357 356 351 349 345 340 331 326 323 323 319 319 311 303 297 293 288 282 281 283 284
262 261 255 253 251 254 257 258 267 270 272 269 280 296 305 318 342 354 354 358 3 3 359 355 349 345 342 336 328 323 320 319 315 309 308 306 301 296 291 288 287 287 284
Height
5882 5882 5882 5881 5881 5881 5880 5880 5879 5879 5878 5878 5878 5877 5877 5877 5877 5877 5878 5878 5878 5879 5879 5879 5880 5880 5881 5882 5883 5883 5884 5884 5885 5886 5887 5888 5889 5890 5891 5892 5893 5893 5894
5882 5882 5882 5881 5881 5881 5880 5880 5879 5879 5878 5878 5877 5877 5877 5877 5877 5877 5877 5877 5877 5878 5879 5879 5879 5880 5881 5881 5882 5883 5883 5884 5885 5886 5887 5887 5888 5889 5891 5892 5892 5893 5894
5882 5882 5882 5881 5881 5881 5880 5880 5879 5879 5878 5878 5877 5877 5877 5877 5877 5876 5877 5877 5877 5877 5878 5878 5878 5879 5880 5880 5881 5882 5883 5883 5884 5885 5886 5887 5888 5889 5890 5891 5892 5893 5894
5882 5882 5882 5881 5881 5880 5880 5880 5879 5879 5878 5877 5877 5876 5876 5876 5876 5876 5876 5876 5876 5877 5877 5877 5878 5878 5879 5879 5880 5881 5882 5882 5883 5884 5885 5886 5887 5888 5889 5890 5891 5892 5893
5882 5881 5881 5881 5881 5880 5880 5880 5879 5878 5878 5877 5877 5876 5876 5876 5875 5875 5875 5875 5876 5876 5876 5876 5877 5877 5878 5878 5879 5880 5880 5881 5882 5883 5884 5885 5887 5888 5889 5890 5891 5892 5893
5881 5881 5881 5881 5881 5880 5880 5879 5879 5878 5877 5877 5876 5876 5875 5875 5875 5875 5875 5875 5875 5875 5875 5875 5875 5876 5876 5877 5878 5878 5879 5880 5881 5882 5883 5884 5886 5887 5888 5889 5890 5891 5892
5881 5881 5881 5880 5880 5880 5879 5879 5878 5877 5877 5876 5876 5876 5875 5875 5875 5874 5874 5874 5874 5874 5874 5874 5874 5875 5875 5876 5876 5877 5878 5879 5880 5881 5882 5884 5885 5886 5887 5888 5889 5890 5891
5881 5881 5880 5880 5879 5879 5879 5878 5878 5877 5877 5876 5876 5875 5875 5874 5874 5874 5873 5873 5873 5873 5873 5873 5873 5874 5874 5875 5875 5876 5877 5878 5879 5880 5882 5883 5884 5885 5886 5887 5888 5889 5890
5881 5880 5880 5879 5879 5879 5878 5878 5877 5877 5876 5876 5875 5875 5874 5874 5873 5873 5872 5872 5872 5872 5872 5872 5872 5872 5873 5874 5874 5875 5876 5877 5878 5879 5881 5882 5882 5884 5885 5886 5887 5888 5889
5880 5880 5879 5879 5879 5878 5878 5878 5877 5877 5876 5876 5875 5875 5874 5873 5873 5872 5872 5871 5871 5871 5870 5871 5871 5871 5872 5872 5873 5873 5875 5876 5877 5878 5879 5880 5881 5882 5884 5885 5886 5887 5888
5879 5879 5878 5878 5878 5878 5878 5877 5877 5876 5876 5875 5875 5874 5873 5873 5872 5871 5871 5870 5870 5870 5869 5869 5870 5870 5870 5871 5871 5872 5873 5874 5876 5877 5878 5879 5880 5881 5882 5884 5885 5886 5887
5879 5878 5878 5877 5877 5877 5877 5877 5877 5876 5876 5875 5875 5874 5873 5872 5872 5871 5870 5870 5869 5869 5868 5868 5868 5869 5869 5869 5870 5871 5872 5873 5874 5875 5877 5878 5879 5880 5881 5882 5883 5884 5885
5878 5877 5877 5877 5877 5877 5877 5877 5876 5876 5875 5875 5874 5873 5872 5872 5871 5870 5869 5869 5868 5868 5867 5867 5867 5868 5868 5868 5869 5869 5870 5871 5873 5874 5875 5876 5877 5878 5879 5880 5882 5883 5884
5877 5877 5877 5876 5876 5876 5876 5876 5876 5875 5875 5874 5873 5872 5872 5871 5870 5869 5869 5868 5868 5867 5867 5867 5867 5867 5867 5867 5868 5869 5869 5870 5871 5873 5874 5875 5876 5877 5878 5879 5880 5881 5882
5876 5876 5876 5876 5876 5876 5876 5875 5875 5875 5874 5874 5873 5872 5871 5870 5870 5869 5868 5867 5867 5867 5866 5866 5866 5866 5866 5866 5867 5867 5868 5869 5870 5872 5873 5874 5875 5876 5876 5877 5878 5879 5880
5875 5875 5875 5875 5875 5875 5875 5875 5875 5874 5874 5874 5873 5872 5871 5870 5869 5868 5868 5867 5867 5866 5866 5866 5865 5865 5865 5866 5866 5867 5867 5868 5869 5871 5872 5873 5874 5874 5875 5876 5877 5878 5878
5874 5874 5874 5874 5874 5874 5875 5874 5874 5874 5874 5873 5873 5872 5871 5870 5869 5868 5868 5867 5866 5866 5866 5865 5865 5865 5865 5865 5866 5866 5866 5867 5868 5870 5871 5871 5872 5873 5874 5875 5876 5876 5877
5872 5873 5873 5873 5873 5874 5874 5874 5874 5873 5873 5873 5872 5872 5871 5870 5869 5868 5868 5867 5866 5866 5866 5865 5865 5865 5865 5865 5865 5866 5866 5867 5868 5869 5870 5870 5871 5872 5873 5873 5874 5875 5875
5871 5872 5872 5872 5873 5873 5873 5873 5873 5873 5873 5872 5872 5872 5871 5871 5870 5869 5868 5868 5867 5866 5866 5865 5865 5865 5865 5865 5865 5866 5866 5867 5867 5868 5869 5870 5870 5871 5871 5872 5873 5873 5874
5870 5870 5871 5871 5872 5872 5873 5873 5873 5873 5873 5872 5872 5872 5871 5871 5870 5869 5868 5868 5867 5867 5866 5866 5865 5865 5865 5865 5865 5865 5866 5866 5867 5867 5868 5869 5869 5870 5870 5871 5872 5872 5873
5868 5869 5870 5870 5871 5871 5872 5872 5872 5872 5872 5872 5872 5871 5871 5871 5870 5869 5869 5868 5868 5867 5867 5866 5866 5865 5865 5865 5865 5866 5866 5866 5866 5867 5867 5868 5868 5869 5870 5870 5871 5871 5871
5867 5868 5869 5869 5870 5871 5871 5871 5872 5872 5872 5872 5872 5871 5871 5871 5870 5870 5869 5868 5868 5867 5867 5866 5866 5866 5865 5865 5866 5866 5866 5866 5866 5866 5866 5867 5867 5868 5868 5869 5869 5870 5870
5866 5867 5867 5868 5869 5869 5870 5870 5871 5871 5871 5871 5871 5871 5871 5871 5870 5870 5869 5869 5868 5868 5867 5867 5866 5866 5866 5866 5866 5866 5866 5866 5866 5866 5866 5866 5866 5867 5867 5868 5868 5868 5868
5865 5865 5866 5867 5868 5869 5869 5870 5870 5871 5871 5871 5871 5871 5871 5870 5870 5870 5869 5869 5868 5868 5867 5867 5866 5866 5866 5866 5865 5865 5866 5865 5866 5866 5866 5866 5866 5866 5866 5866 5867 5867 5867
5864 5864 5865 5866 5867 5867 5868 5869 5870 5870 5870 5871 5871 5871 5871 5871 5871 5870 5870 5869 5869 5868 5868 5867 5867 5866 5866 5866 5865 5865 5865 5865 5865 5865 5865 5865 5865 5865 5865 5865 5865 5865 5865
5862 5863 5864 5864 5865 5866 5867 5868 5869 5869 5870 5870 5870 5870 5870 5870 5871 5870 5870 5869 5869 5868 5868 5867 5867 5866 5866 5866 5865 5865 5865 5865 5864 5864 5864 5864 5864 5864 5863 5863 5863 5863 5863